Location: Turtle Rock Observatory
(36.6913°N, 81.9708°W)
Time: 08:29:43
(UTC-04:00)

TITAN 4B R/B - Visible Passes

Search period start: 17 April 2014 00:00
Search period end: 27 April 2014 00:00
Orbit: 474 x 662 km, 57.0° (Epoch: 07 April)

Date Brightness Start Highest point End Pass type
(mag) Time Alt. Az. Time Alt. Az. Time Alt. Az.
17 Apr 2.4 22:21:17 10° NNW 22:24:09 39° N 22:24:09 39° N visible
18 Apr 3.6 20:44:05 10° N 20:45:40 12° NNE 20:47:17 10° NE visible
18 Apr 2.0 22:21:45 10° NW 22:24:51 52° NNW 22:24:51 52° NNW visible
19 Apr 3.3 20:43:52 10° N 20:46:26 16° NE 20:49:04 10° ENE visible
19 Apr 1.9 22:22:18 10° NW 22:25:35 54° WNW 22:25:35 54° WNW visible
20 Apr 2.8 20:43:56 10° NNW 20:47:07 23° NE 20:50:18 11° E visible
20 Apr 2.4 22:22:58 10° WNW 22:26:22 38° WSW 22:26:22 38° WSW visible
21 Apr 2.3 20:44:09 10° NNW 20:47:44 33° NE 20:51:09 12° ESE visible
21 Apr 3.0 22:23:50 10° WNW 22:27:10 25° WSW 22:27:12 25° SW visible
22 Apr 1.6 20:44:27 10° NNW 20:48:17 50° NE 20:52:03 12° ESE visible
22 Apr 3.6 22:25:04 10° W 22:27:32 16° WSW 22:28:07 15° SW visible
23 Apr 1.3 20:44:50 10° NW 20:48:47 81° NE 20:52:57 10° SE visible
24 Apr 1.7 20:45:20 10° NW 20:49:14 62° SW 20:53:21 10° SSE visible
25 Apr 2.6 20:45:57 10° WNW 20:49:37 37° SW 20:53:29 10° SSE visible
26 Apr 3.4 20:46:47 10° WNW 20:49:58 23° WSW 20:53:18 10° S visible
